Flag for U.S.A. Weather past 2 weeks in Seattle, Washington, U.S.A.

Now
63 °F

More clouds than sun.


Feels Like: 63 °F
Forecast: 56 / 68 °F
Wind: 9 mph from Southwest

Location: Seattle Boeing Field

Current Time: Jul 23, 2014 at 9:58:13 PM

Latest Report: Jul 23, 2014 at 8:53 PM


Visibility: 10 mi

Pressure: 30.05 "Hg

Humidity: 68%

Dew point: 52 °F

Location of SeattleLocation

Historic Weather in Seattle — Graph

°F

Seattle temperature yesterday

Maximum temperature yesterday: 72 °F (at 6:53 PM)
Minimum temperature yesterday: 59 °F (at 5:53 AM)
Average temperature yesterday: 65 °F

Past Weeks' High & Low Weather Summary

 TemperatureHumidityPressure
High90 °F (Jul 12, 3:53 PM)87% (Jul 23, 7:53 AM)30.14 "Hg (Jul 23, 7:53 AM)
Low57 °F (Jul 18, 5:53 AM)27% (Jul 10, 4:53 PM)29.87 "Hg (Jul 10, 5:53 PM)
Average71 °F58%30.01 "Hg
* Reported Jul 8 7:53 PM — Jul 23 7:53 PM, Seattle, Weather by CustomWeather, © 2014

Note: Actual official high and low records may vary slightly from our data, if they occured in-between our weather recording intervals... More about our weather records

Advertising

Seattle weather history for previous 24 hours

 ConditionsComfort  
Time TempWeatherWind HumidityBarometerVisibility
7:53 PM
Jul 23
63 °FMore clouds than sun.9 mph78%30.03 "Hg10 mi
6:53 PM62 °FLight rain. Broken clouds.14 mph80%30.03 "Hg10 mi
5:53 PM66 °FBroken clouds.10 mph73%30.04 "Hg10 mi
4:53 PM63 °FBroken clouds.8 mph81%30.04 "Hg10 mi
3:53 PM62 °FLight rain. More clouds than sun.9 mph80%30.05 "Hg6 mi
2:53 PM62 °FLight rain. Overcast.9 mph83%30.05 "Hg7 mi
1:53 PM62 °FLight rain. Overcast.9 mph83%30.03 "Hg9 mi
12:53 PM62 °FLight rain. Mostly cloudy.7 mph80%30.01 "Hg10 mi
11:53 AM64 °FLight rain. Fog.8 mph87%30.00 "Hg2 mi
10:53 AM65 °FLight rain. Fog.5 mph87%29.99 "Hg4 mi
9:53 AM64 °FLight rain. Cloudy.8 mph84%30.00 "Hg5 mi
8:53 AM63 °FMostly cloudy.No wind87%29.99 "Hg10 mi
7:53 AM63 °FLight rain. Mostly cloudy.7 mph87%29.98 "Hg8 mi
6:53 AM62 °FLight rain. Mostly cloudy.No wind83%29.98 "Hg7 mi
5:53 AM62 °FPassing clouds.No wind78%29.96 "Hg10 mi
2:53 AM64 °FLight rain. Passing clouds.No wind84%29.98 "Hg10 mi
1:53 AM64 °FLight rain. Partly cloudy.3 mph84%30.00 "Hg10 mi
12:53 AM66 °FLight rain. Passing clouds.No wind73%30.01 "Hg10 mi
10:53 PM
Jul 22
67 °FClear.No wind66%30.01 "Hg10 mi
9:53 PM67 °FScattered clouds.No wind66%30.02 "Hg10 mi
Weather by CustomWeather, © 2014

See weather overviewHow to use our weather pages